User: anonymous   Login
Location: Bangkok
(13.7500°N, 100.5170°E)
Time: 07:46:58
(UTC+07:00)
Language:

Cosmos 1802 Rocket - Orbit

View from above orbital plane
View from above orbital plane
View from above satellite
View from above satellite

Ground track
Ground track

The orbit data is extracted from the following two-line orbital elements,

1 17160U 86093B   16181.92066095 +.00000072 +00000-0 +59430-4 0  9999
2 17160 082.9280 325.6238 0040008 051.8434 060.7847 13.74581193484204
Epoch (UTC): 29 June 2016 22:05:45
Eccentricity: 0.0040008
inclination: 82.9280°
perigee height: 954 km
apogee height: 1012 km
right ascension of ascending node: 325.6238°
argument of perigee: 51.8434°
revolutions per day: 13.74581193
mean anomaly at epoch: 60.7847°
orbit number at epoch: 48420

The dashed part of the orbit path shows where the satellite is in the earth's shadow,  

DLR